Location: Newark
(35.2672°N, 80.7344°W)
Time: 22:31:51
(UTC+00:00)

A-11 Canister half - Visible Passes

Search period start: 24 January 2020 00:00
Search period end: 03 February 2020 00:00
Orbit: 1525 x 1684 km, 47.3° (Epoch: 24 January)

Date Brightness Start Highest point End Pass type
(mag) Time Alt. Az. Time Alt. Az. Time Alt. Az.
24 Jan 9.6 00:57:47 10° W 01:06:43 45° NNW 01:09:57 35° NNE visible
24 Jan 10.6 03:04:42 10° WNW 03:08:15 24° NW 03:08:15 24° NW visible
25 Jan 9.6 00:36:03 10° W 00:45:00 46° NNW 00:49:35 29° NE visible
25 Jan 10.3 02:43:01 10° WNW 02:47:54 30° NW 02:47:54 30° NW visible
26 Jan 9.6 00:14:20 10° W 00:23:17 47° NNW 00:29:12 23° NE visible
26 Jan 10.0 02:21:20 10° WNW 02:27:31 35° NNW 02:27:31 35° NNW visible
26 Jan 9.6 23:52:37 10° W 00:01:35 48° NNW 00:08:49 17° NE visible
27 Jan 9.8 01:59:39 10° WNW 02:07:07 40° NNW 02:07:07 40° NNW visible
27 Jan 11.3 04:05:14 10° NW 04:05:25 11° NW 04:05:25 11° NW visible
27 Jan 9.5 23:30:54 10° W 23:39:53 49° NNW 23:48:26 12° NE visible
28 Jan 9.6 01:37:58 10° WNW 01:46:43 41° N 01:46:43 41° N visible
28 Jan 11.0 03:43:36 10° NW 03:45:02 16° NW 03:45:02 16° NW visible
28 Jan 9.5 23:09:10 10° W 23:18:11 51° NNW 23:27:25 10° NE visible
29 Jan 9.6 01:16:16 10° WNW 01:25:03 41° N 01:26:20 39° NNE visible
29 Jan 10.7 03:21:58 10° NW 03:24:38 22° NW 03:24:38 22° NW visible
30 Jan 9.6 00:54:34 10° WNW 01:03:20 40° N 01:05:56 35° NE visible
30 Jan 10.4 03:00:20 10° NW 03:04:15 28° NW 03:04:15 28° NW visible
31 Jan 9.7 00:32:52 10° WNW 00:41:35 40° N 00:45:34 29° NE visible
31 Jan 10.0 02:38:42 10° NW 02:43:52 36° NW 02:43:52 36° NW visible
01 Feb 9.7 00:11:10 10° WNW 00:19:52 40° N 00:25:12 23° NE visible
01 Feb 9.6 02:17:04 10° NW 02:23:31 45° NNW 02:23:31 45° NNW visible
01 Feb 9.7 23:49:28 10° WNW 23:58:08 40° N 00:04:52 17° ENE visible
02 Feb 9.3 01:55:26 10° NW 02:03:11 53° N 02:03:11 53° N visible
02 Feb 11.1 04:00:37 10° WNW 04:01:29 13° WNW 04:01:29 13° WNW visible
02 Feb 9.7 23:27:45 10° WNW 23:36:24 40° N 23:44:34 12° ENE visible
